TITAN 3C TRANSTAGE DEB, 26777

Orbit data source: Space-Track

TITAN 3C TRANSTAGE DEB, 26777 is space debris in HEO originally from a launch on Tue, 21 Dec 1965 UTC launched from the Air Force Eastern Test Range (AFETR). Debris objects in space refer to the collection of defunct objects orbiting the Earth. Examples of debris include non-operational satellites, rocket bodies, and fragments generated from explosions, collisions, or faulty payload assembly.

Loading next visibility...
Identifier
26777, 1965-108AV
Orbit
HEO
Country
Flag of USUS
Related business
Manufacturer
Unknown
Mission
Spacecraft
Bus & Motor
Unknown
Mass
Unknown
Launch date (UTC)
1965-12-21 (61 years ago)
Launch vehicle
Unknown
Launch site
Air Force Eastern Test Range (AFETR)
Object type
Payload
Rocket body
Debris
Shape & HBR
Unknown shape, 0.2 m
Radar Cross Section
Medium (>0.1 m² and <1 m²)

Expand to show TLE details & history
Last TLE update: 1 day ago

TLE from 1 day ago
0 TITAN 3C TRANSTAGE DEB
1 26777U 65108AV  26206.12383002 -.00000022  00000-0  00000-0 0  9999
2 26777  26.6348 180.2206 6700891 101.8347 357.8865  2.56602375 47014
Epoch: 2026-07-25T02:58Z
TLE epoch observation values (Epoch: 2026-07-25T02:58:18.913Z)
Latitude
26.72762°
Longitude
-80.11249°
Altitude
1,137.049 km
Speed
9.404 km/s
True Right ascension
17h 49m 13s
True Declination
26° 35' 48"
Sunlit
Object was in daylight at epoch
Visualization orbit readout
Latitude
Unknown
Longitude
Unknown
Altitude
Unknown
Speed
Unknown
Apparent Right ascension
Unknown
Apparent Declination
Unknown
Sunlit
N/A
Visualization observer readout
Local Sidereal Time
16:15:44
Azimuth
Unknown
Elevation
Unknown
Doppler factor
Unknown
Orbital elements
Apogee altitude
31,266.14 km
Perigee altitude
1,058.147 km
Semi-major axis
22,540.28 km
Eccentricity
0.67009
Inclination
26.6348°
RAAN
180.2206°
Arg. of periapsis
101.8347°
True anomaly
345.7062°
Mean anomaly
357.8865°
Eccentric anomaly
353.62048°
Mean motion
0.64136 °/min
Orbital period
561.3 mins
BSTAR
0
Loading maneuver chart data...
Computing Atmospheric mass density...

Documentation

Showing up to 5 results
|